ONEWEB-0041, 45148

Orbit data source: Space-Track

ONEWEB-0041, 45148 is a payload satellite owned by One Web (UK) in LEO that was launched on Thu, 06 Feb 2020 UTC via a SOYUZ-2-1B launch vehicle from the Tyuratam Missile And Space Complex (TTMTR). Payload-class satellites include a variety of spacecraft equipped with specific instruments for various scientific and technological missions. These include communications satellites like Starlink; space stations such as the ISS; scientific satellites like the Hubble; Earth observation satellites from companies like Planet Labs, Umbra, and HawkEye 360; GPS; miniature CubeSats for education and research; and military/defense satellites.

Loading next visibility...
Identifier
45148, 2020-008T
Orbit
LEO
Country
Flag of UKUK
Related business
Manufacturer
One Web
Mission
Non-operational Commercial Communications
Bus & Motor
ARROW, Unknown motor
Mass
148 kg wet, ~140 kg dry
Launch date (UTC)
2020-02-06 (6 years ago)
Launch vehicle
SOYUZ-2-1B
Launch site
Tyuratam Missile And Space Complex (TTMTR)
Object type
Payload
Rocket body
Debris
Shape & HBR
Trap Box + 2 Pan, 6.7 m
Radar Cross Section
3.464 m², Large (>1 m²)

Expand to show TLE details & history
Last TLE update: 22 hours ago

TLE from 22 hours ago
0 ONEWEB-0041
1 45148U 20008T   26034.49567341  .00000070  00000-0  90818-4 0  9993
2 45148  87.9311  31.7833 0015668 256.4730 103.4674 13.48588819300037
Epoch: 2026-02-03T11:53Z
TLE epoch observation values (Epoch: 2026-02-03T11:53:46.182Z)
Latitude
-0.00001°
Longitude
79.66509°
Altitude
1,083.137 km
Speed
7.309 km/s
True Right ascension
02h 07m 07s
True Declination
0° 00' 00"
Sunlit
Object was in daylight at epoch
Visualization orbit readout
Latitude
Unknown
Longitude
Unknown
Altitude
Unknown
Speed
Unknown
Apparent Right ascension
Unknown
Apparent Declination
Unknown
Sunlit
N/A
Visualization observer readout
Local Sidereal Time
11:45:32
Azimuth
Unknown
Elevation
Unknown
Doppler factor
Unknown
Orbital elements
Apogee altitude
1,086.195 km
Perigee altitude
1,062.842 km
Semi-major axis
7,452.655 km
Eccentricity
0.00157
Inclination
87.9311°
RAAN
31.7833°
Arg. of periapsis
256.473°
True anomaly
103.64193°
Mean anomaly
103.4674°
Eccentric anomaly
103.55467°
Mean motion
3.37347 °/min
Orbital period
106.72 mins
BSTAR
0.000090818
Loading maneuver chart data...
Computing Atmospheric mass density...
Loading historical data...
Loading historical data...
Loading historical data...
Loading historical data...
Loading historical data...
Loading historical data...
Loading historical data...

Documentation

Showing up to 5 results
|